[[{"header":{"parameterUnit":"m.s-1","parameterCategory":1,"la1":30.2991,"la2":30.254,"lo1":-89.0895,"lo2":-89.0444,"dy":0.0017,"dx":0.0017,"nx":28,"ny":28,"refTime":"2024-06-28T03:00:00:Z","depth":0,"parameterNumber":2,"parameterNumberName":"U-component_of_WINDS"},"data":[0,0,0,0,0,0,0,0,0,0,0,0,0,0,0,0,0,0,0,0,0,0,0,0,0,0,0,0,0,0,0,0,0,0,0,0,0,0,0,0,0,0,0,0,0,0,0,0,0,0,0,0,0,0,0,0,0,0,3.793,3.7932,0,3.804,3.8041,3.8043,3.7972,3.7969,3.7965,3.7962,3.8069,3.8075,3.808,0,0,0,0,0,0,0,0,0,0,0,0,0,3.7653,3.7659,3.793,3.7932,3.7933,3.804,3.8041,3.8043,3.7972,3.7968,3.7964,3.7961,3.8067,3.8074,3.8081,0,0,0,0,0,0,0,0,0,0,0,0,0,3.7769,3.766,3.793,3.7911,3.791,3.804,3.8041,3.8043,3.7973,3.7968,3.7963,3.7959,3.8065,3.8073,3.8082,3.8234,0,0,3.8109,3.8113,0,0,0,0,0,0,0,0,3.7763,3.7779,3.7912,3.7912,3.7912,3.7987,3.7983,3.8107,3.7974,3.7949,3.7962,3.7956,3.8045,3.8055,3.8087,3.8239,3.8244,3.811,3.8115,3.8119,3.8121,0,0,0,0,0,0,0,3.7755,3.7774,3.7973,3.7914,3.7914,3.7895,3.7906,3.8006,3.8023,3.7951,3.7946,3.796,3.8044,3.8078,3.8089,3.8246,3.8109,3.8117,3.8123,3.8126,3.8527,3.8532,0,0,0,0,0,0,3.7749,3.7768,3.797,3.7977,3.7824,3.7904,3.7916,3.7968,3.8022,3.8026,3.7965,3.7957,3.8066,3.8078,3.8092,3.8272,3.8119,3.8127,3.8132,3.8521,3.8528,3.8534,0,0,0,0,0,0,3.7743,3.7768,3.7965,3.7871,3.7895,3.7914,3.7973,3.7973,3.8007,3.8032,3.8034,3.7996,3.8062,3.808,3.8199,3.8275,3.8131,3.8139,3.8515,3.8523,3.8531,3.8635,0,0,0,0,0,0,3.7736,3.7766,3.7826,3.7873,3.79,3.8073,3.7977,3.7978,3.8023,3.8014,3.8063,3.8066,3.806,3.8187,3.8208,3.8284,3.8146,3.8508,3.8519,3.8528,3.8624,3.8645,3.8663,0,0,0,0,0,3.7726,3.785,3.7829,3.7854,3.7975,3.8078,3.8093,3.8085,3.8029,3.8088,3.8104,3.8065,3.8264,3.82,3.8223,3.8303,3.8504,3.8516,3.8528,3.8616,3.8641,3.8663,0,0,0,0,0,0,3.7808,3.7855,3.7833,3.7976,3.8024,3.8066,3.8139,3.8112,3.8174,3.8163,3.8149,3.816,3.8285,3.8307,3.8234,3.8453,3.8375,3.8392,3.8434,3.8458,3.8477,3.8467,3.8153,0,0,0,0,0,3.7843,3.7924,3.7961,3.8083,3.8108,3.812,3.8164,3.8154,3.8202,3.8221,3.8246,3.8292,3.8365,3.8413,3.8482,3.8628,3.8636,3.8695,3.8714,3.873,3.8744,3.8821,3.8846,3.8573,3.8573,3.8573,0,0,3.7915,3.7951,3.8003,3.8101,3.8136,3.8218,3.8137,3.8228,3.8288,3.8234,3.8348,3.8369,3.8419,3.8553,3.8613,3.8574,3.8822,3.8745,3.8758,3.8763,3.8836,3.8861,3.8884,3.8581,3.858,3.8579,0,0,3.8088,3.8126,3.8231,3.8269,3.8325,3.8332,3.8357,3.8404,3.8416,3.8531,3.8492,3.8563,3.8689,3.8726,3.8762,3.8951,3.8915,3.8973,3.9072,3.9147,3.9169,3.9188,3.9252,3.9276,3.8988,3.8988,3.8988,0,3.817,3.8294,3.8287,3.8381,3.8424,3.8382,3.8487,3.8524,3.8598,3.8628,3.8585,3.8742,3.8773,3.8914,3.896,3.8991,3.9017,3.8966,3.9167,3.9186,3.9203,3.9264,3.9289,3.8995,3.8994,3.8993,3.8993,0,3.8391,3.8478,3.8556,3.8631,3.8683,3.8782,3.8788,3.8841,3.8827,3.8839,3.8955,3.8992,3.9066,3.91,3.9086,3.9238,3.9212,3.9169,3.9089,3.9236,3.9293,3.9317,3.9004,3.9002,3.9,3.8998,0,0,3.8615,3.8687,3.8716,3.8749,3.8808,3.8874,3.8971,3.9046,3.909,3.9144,3.9222,3.9331,3.9291,3.9331,3.9322,3.9388,3.9532,3.9336,3.9337,3.9368,3.9699,3.9729,3.9756,3.9511,3.9515,3.9519,3.9693,0,3.8789,3.896,3.8957,3.9114,3.9192,3.9155,3.9239,3.9283,3.9297,3.9364,3.9378,3.9454,3.9397,3.942,3.9485,3.9501,3.9598,3.9489,3.958,3.9584,3.9566,3.9787,3.9819,3.9982,3.9716,3.972,3.9723,0,3.9014,3.9077,3.9243,3.9291,3.9324,3.9399,3.9467,3.9533,3.9582,3.9587,3.9633,3.9613,3.9709,3.963,3.976,3.9686,3.9724,3.9738,3.9744,3.9749,3.966,3.9795,4.0034,4.0057,3.9758,3.9756,3.9753,0,3.9157,3.9284,3.9399,3.9429,3.9488,3.9542,3.9569,3.9613,3.9658,3.9718,3.9746,3.9816,3.9852,3.9906,3.9904,3.9847,4.0035,3.9957,4.0039,4.0039,4.0077,4.0074,4.0322,4.0108,4.0107,4.0107,4.0106,0,3.935,3.9452,3.9464,3.9534,3.9647,3.9643,3.9753,3.9774,3.9815,3.9887,3.9859,3.9927,3.9923,3.9991,3.999,4.0096,4.0114,4.0119,4.0117,4.012,4.0119,4.0141,4.0129,4.0113,4.0112,4.0111,4.011,0,3.9527,3.954,3.9662,3.971,3.9724,3.9804,3.9843,3.9909,3.9921,4.0013,4.0034,4.0052,4.0131,4.0136,4.0227,4.0226,4.0354,4.0342,4.0338,4.0335,4.0416,4.0407,4.0684,4.0719,4.0485,4.0487,4.0489,0,3.9647,3.9725,3.9781,3.9829,3.986,3.9936,3.9983,3.9982,4.0031,4.0093,4.0151,4.0228,4.0288,4.0416,4.0435,4.0504,4.0491,4.0584,4.0501,4.05,4.0488,4.0482,4.0489,4.0598,4.0601,4.0603,4.0605,0,3.9858,3.9861,3.993,4.0003,4.006,4.0116,4.0168,4.0208,4.0213,4.0269,4.0351,4.0399,4.0492,4.0567,4.0635,4.066,4.0632,4.0632,4.0653,4.0655,4.0649,4.065,4.0378,4.0624,4.0622,4.0621,4.062,4.0619,4.0008,4.0075,4.0125,4.0203,4.0244,4.0293,4.0357,4.0379,4.0448,4.0525,4.052,4.0609,4.0655,4.0744,4.0774,4.0843,4.0811,4.0844,4.0851,4.0859,4.0866,4.0641,4.0855,4.0855,4.0854,4.0854,4.0853,0,4.0214,4.0246,4.0318,4.0393,4.0455,4.0428,4.0484,4.0536,4.0616,4.0663,4.0725,4.0817,4.0891,4.0918,4.0988,4.1038,4.1027,4.1056,4.105,4.1056,4.0892,4.0864,4.1064,4.1064,4.1064,4.1064,4.1064,4.1064,4.0328,4.044,4.0449,4.058,4.061,4.0699,4.0734,4.0779,4.0816,4.0922,4.0984,4.1002,4.104,4.1114,4.1179,4.1185,4.121,4.1244,4.1245,4.1089,4.1068,4.1048,4.1021,4.1251,4.1251,4.1403,4.1404,4.1406]},{"header":{"parameterUnit":"m.s-1","parameterCategory":1,"la1":30.2991,"la2":30.254,"lo1":-89.0895,"lo2":-89.0444,"dy":0.0017,"dx":0.0017,"nx":28,"ny":28,"refTime":"2024-06-28T03:00:00:Z","depth":0,"parameterNumber":3,"parameterNumberName":"V-component_of_WINDS"},"data":[0,0,0,0,0,0,0,0,0,0,0,0,0,0,0,0,0,0,0,0,0,0,0,0,0,0,0,0,0,0,0,0,0,0,0,0,0,0,0,0,0,0,0,0,0,0,0,0,0,0,0,0,0,0,0,0,0,0,2.7921,2.7922,0,2.803,2.8031,2.8033,2.8084,2.8084,2.8084,2.8084,2.8191,2.8194,2.8197,0,0,0,0,0,0,0,0,0,0,0,0,0,2.7751,2.7754,2.7921,2.7922,2.7924,2.803,2.8032,2.8033,2.8084,2.8084,2.8084,2.8084,2.819,2.8194,2.8197,0,0,0,0,0,0,0,0,0,0,0,0,0,2.7839,2.7755,2.7921,2.7962,2.7967,2.803,2.8032,2.8033,2.8084,2.8084,2.8084,2.8084,2.8189,2.8193,2.8198,2.8226,0,0,2.8211,2.8213,0,0,0,0,0,0,0,0,2.7834,2.7845,2.7955,2.7959,2.7965,2.8044,2.8011,2.8098,2.8084,2.8039,2.8084,2.8084,2.8142,2.815,2.8171,2.8231,2.8236,2.8212,2.8214,2.8216,2.8217,0,0,0,0,0,0,0,2.7828,2.7841,2.7964,2.7956,2.7962,2.7973,2.7986,2.8028,2.809,2.8043,2.8047,2.806,2.8145,2.8166,2.8174,2.8238,2.8211,2.8215,2.8218,2.822,2.8325,2.8325,0,0,0,0,0,0,2.7816,2.7835,2.7961,2.7967,2.7898,2.7977,2.799,2.8018,2.8089,2.81,2.806,2.8062,2.8159,2.8168,2.8178,2.8215,2.8216,2.822,2.8223,2.8325,2.8325,2.8325,0,0,0,0,0,0,2.7812,2.7827,2.7956,2.7903,2.792,2.798,2.801,2.802,2.8042,2.8102,2.8113,2.8071,2.8159,2.8171,2.8214,2.8219,2.8222,2.8226,2.8324,2.8325,2.8325,2.829,0,0,0,0,0,0,2.7807,2.7825,2.7838,2.7903,2.7923,2.7992,2.8011,2.8023,2.805,2.8054,2.8115,2.8125,2.816,2.8207,2.8218,2.8225,2.8229,2.8324,2.8325,2.8325,2.8291,2.8289,2.8287,0,0,0,0,0,2.7801,2.7823,2.7838,2.7853,2.794,2.7993,2.8004,2.8045,2.8051,2.8063,2.8101,2.8123,2.8217,2.8211,2.8224,2.8232,2.8324,2.8324,2.8325,2.8292,2.8289,2.8287,0,0,0,0,0,0,2.7757,2.7832,2.785,2.7895,2.7937,2.8001,2.8019,2.8041,2.8082,2.8083,2.8131,2.8144,2.8182,2.8211,2.8204,2.8263,2.8272,2.8275,2.8242,2.8241,2.8239,2.8231,2.8233,0,0,0,0,0,2.7752,2.779,2.7853,2.7886,2.7907,2.7958,2.7983,2.8011,2.8056,2.8074,2.8115,2.8156,2.8195,2.8219,2.8258,2.8295,2.8308,2.8307,2.8305,2.8303,2.8305,2.8325,2.8325,2.8326,2.8326,2.8326,0,0,2.7743,2.7789,2.781,2.7878,2.7915,2.7951,2.7973,2.8011,2.8038,2.8079,2.8122,2.8153,2.8202,2.8241,2.826,2.8267,2.8308,2.8304,2.8302,2.8305,2.8326,2.8325,2.8325,2.8327,2.8327,2.8326,0,0,2.7746,2.7785,2.7816,2.7851,2.7906,2.794,2.7947,2.8008,2.803,2.8074,2.8105,2.8136,2.8202,2.8236,2.8262,2.8274,2.8295,2.8285,2.8276,2.8294,2.8294,2.8294,2.8298,2.8299,2.8286,2.8286,2.8286,0,2.7728,2.7785,2.7829,2.7865,2.7893,2.7932,2.7963,2.7994,2.8058,2.8076,2.8082,2.8165,2.8201,2.8248,2.825,2.827,2.8278,2.8278,2.8291,2.8292,2.8292,2.8296,2.8297,2.8285,2.8285,2.8285,2.8285,0,2.7759,2.7798,2.7816,2.7878,2.7908,2.7941,2.7988,2.8012,2.8037,2.8069,2.8112,2.8156,2.8204,2.8217,2.8241,2.8266,2.8269,2.8282,2.8293,2.829,2.8294,2.8296,2.8282,2.8283,2.8283,2.8284,0,0,2.7739,2.7823,2.7829,2.7856,2.7918,2.7948,2.7981,2.8029,2.8049,2.809,2.8119,2.8172,2.8185,2.8214,2.8241,2.8258,2.8263,2.8269,2.8271,2.8266,2.8292,2.8282,2.8283,2.8277,2.8278,2.8278,2.8288,0,2.7749,2.7813,2.7852,2.7899,2.7935,2.7971,2.8,2.804,2.807,2.8103,2.8136,2.8174,2.8188,2.8205,2.8223,2.8259,2.8269,2.8259,2.8303,2.8304,2.829,2.8285,2.8275,2.8282,2.829,2.829,2.8291,0,2.7771,2.7813,2.7863,2.792,2.7936,2.7961,2.8007,2.8039,2.8083,2.8104,2.8136,2.8163,2.8198,2.8204,2.8252,2.8243,2.8263,2.8283,2.8284,2.829,2.8297,2.8291,2.8286,2.8287,2.8294,2.8294,2.8293,0,2.775,2.7819,2.7858,2.788,2.7947,2.7963,2.7991,2.8036,2.8062,2.8101,2.8118,2.816,2.8183,2.8214,2.8251,2.8253,2.8294,2.8304,2.8311,2.831,2.8318,2.8317,2.8316,2.8331,2.8331,2.8331,2.8331,0,2.7758,2.7788,2.7849,2.7873,2.7906,2.7949,2.798,2.8011,2.805,2.8079,2.8113,2.8139,2.8186,2.8218,2.8247,2.828,2.829,2.8307,2.8314,2.8304,2.8302,2.8318,2.8319,2.8331,2.8331,2.8331,2.8331,0,2.7741,2.7784,2.7828,2.7887,2.7903,2.7924,2.7974,2.7997,2.8029,2.8065,2.8076,2.8125,2.8164,2.8204,2.8255,2.8275,2.8307,2.8317,2.8292,2.8297,2.8301,2.83,2.831,2.8313,2.8325,2.8325,2.8325,0,2.7744,2.7767,2.7829,2.7851,2.7879,2.7914,2.794,2.7983,2.8008,2.806,2.8076,2.8117,2.8153,2.8212,2.8251,2.829,2.8301,2.8302,2.8307,2.8296,2.8301,2.8299,2.8301,2.83,2.83,2.83,2.83,0,2.7744,2.7763,2.78,2.7844,2.7874,2.7911,2.7948,2.7964,2.8013,2.804,2.808,2.8107,2.816,2.8199,2.8243,2.827,2.8292,2.8297,2.8301,2.8291,2.8275,2.8283,2.8287,2.8297,2.8297,2.8298,2.8298,2.8298,2.7736,2.7758,2.7805,2.7844,2.7877,2.791,2.7935,2.7969,2.8004,2.8051,2.8073,2.8113,2.8155,2.8216,2.8242,2.8272,2.8279,2.8284,2.8285,2.8286,2.8283,2.827,2.828,2.828,2.828,2.828,2.8281,0,2.7737,2.7769,2.7805,2.7856,2.7886,2.7905,2.7947,2.7971,2.8006,2.8044,2.8077,2.8122,2.816,2.8202,2.8242,2.8258,2.8269,2.8267,2.8266,2.8272,2.8275,2.8268,2.8257,2.8257,2.8257,2.8257,2.8257,2.8257,2.7742,2.7779,2.7804,2.7857,2.7887,2.7928,2.795,2.798,2.801,2.8059,2.8091,2.8118,2.8157,2.82,2.8235,2.8246,2.8258,2.8253,2.8267,2.827,2.8272,2.8273,2.8267,2.8256,2.8256,2.8261,2.8261,2.8261]}]]